Location: Newark
(40.3417°N, 75.9264°W)
Time: 08:34:01
(UTC+00:00)

DIWATA 2B (PO-101) - Visible Passes

Search period start: 06 June 2020 00:00
Search period end: 16 June 2020 00:00
Orbit: 586 x 599 km, 97.9° (Epoch: 05 June)

Date Brightness Start Highest point End Pass type
(mag) Time Alt. Az. Time Alt. Az. Time Alt. Az.
06 Jun ? 05:05:52 21° ENE 05:06:15 21° ENE 05:09:27 10° NNE visible
06 Jun ? 06:42:28 29° WNW 06:42:28 29° WNW 06:45:24 10° NNW visible
07 Jun ? 05:14:49 26° ENE 05:15:03 26° ENE 05:18:34 10° NNE visible
07 Jun ? 06:51:25 24° WNW 06:51:25 24° WNW 06:54:04 10° NW visible
08 Jun ? 05:23:46 32° ENE 05:23:52 32° ENE 05:27:38 10° N visible
08 Jun ? 07:00:22 19° WNW 07:00:22 19° WNW 07:02:39 10° NW visible
09 Jun ? 05:32:43 40° ENE 05:32:43 40° ENE 05:36:40 10° N visible
09 Jun ? 07:09:19 15° WNW 07:09:19 15° WNW 07:11:07 10° NW visible
10 Jun ? 05:41:41 50° ENE 05:41:41 50° ENE 05:45:38 10° N visible
10 Jun ? 07:18:17 12° WNW 07:18:17 12° WNW 07:19:22 10° WNW visible
11 Jun ? 05:50:38 62° NE 05:50:38 62° NE 05:54:35 10° N visible
12 Jun ? 05:59:36 73° NNE 05:59:36 73° NNE 06:03:30 10° N visible
13 Jun ? 06:08:34 70° NW 06:08:34 70° NW 06:12:23 10° NNW visible
14 Jun ? 04:40:56 11° ENE 04:42:01 12° ENE 04:43:32 10° NE visible
14 Jun ? 06:17:32 57° WNW 06:17:32 57° WNW 06:21:13 10° NNW visible
15 Jun ? 04:49:55 14° ENE 04:50:48 15° ENE 04:53:06 10° NNE visible
15 Jun ? 06:26:30 45° WNW 06:26:30 45° WNW 06:30:02 10° NNW visible
